METEOR M2-4

Satellite information

Favourite Embed

Satellite Type and Status

PAYLOADIN ORBIT

Key statistics

Satellite METEOR M2-4 at a glance.

Uptime

434

Days in orbit

Revolutions

≈ 14.2

Per day

Orbit

SSO

Sun Synchronous Orbit

Inclination

98.6

Latest

Satellite identification and parameters

Extended collection of information and parameters for METEOR M2-4.

Object identification

Identified? True

Debris? False

Object name: METEOR M2-4

International designator: 2024-039A

Object number (NORAD): 59051

Object ID (CCSDS): 59051

Country: COMMONWEALTH OF INDEPENDENT STATES (CIS)

Current information (Y/N): Y

RCS size: LARGE

Orbital parameters

Period: 101.24 minutes

Inclination: 98.647 deg

SMA: 7195.508 km

Apoapsis: 821.605 km

Periapsis: 813.142 km

RAAN: 88.682 deg

Eccentricy: 0.0005881

Argument of periapsis: 262.9025 deg

Mean anomaly: 97.1484 deg

Mean motion: 14.22363283 rev/day

Mean motion (dot): 0.00000045 rev/day2

B* drag term: 0.000039847 1/REarth

Two-line elements (TLE)

Creation date: May 8, 2025, 3:01 a.m.

Reference frame: TEME

Reference center: EARTH

Epoch: May 7, 2025, 10:24 p.m. UTC

TLE line 0: 0 METEOR M2-4

TLE line 1: 1 59051U 24039A 25127.93367601 .00000045 00000-0 39847-4 0 9994

TLE line 2: 2 59051 98.6470 88.6820 0005881 262.9025 97.1484 14.22363283 61651

Live tracking on map

Real-time ground track for satellite METEOR M2-4.

In-orbit conjunctions

There are no conjunctions computed for METEOR M2-4, at the moment. Check back to stay up to date, as we update our databases every day.

Go to all conjunctions

Associated space launch

Meteor-M satellites are a new generation of Russian meteorological satellites. Hitchhiking Payloads: SITRO-AIS 13-28, Zorkiy-2M-2, Pars 1 (Iran).

METEOR M2-4 was lifted into orbit during the mission ‘Soyuz 2.1b/Fregat-M | Meteor-M No.2-4 & others’, on board a Soyuz 2.1b/Fregat-M space rocket.

The launch took place on Feb. 29, 2024, 5:43 a.m. from Cosmodrome Site 1S.

For more information about the launch, click the button.

Launch to space Soyuz 2.1b/Fregat-M | Meteor-M No.2-4 & others
Soyuz 2.1b/Fregat-M | Meteor-M No.2-4 & others

Agency: Russian Federal Space Agency (ROSCOSMOS)

Status: Launch Successful

Launch date: Feb. 29, 2024, 5:43 a.m. UTC

Rocket: Soyuz 2.1b/Fregat-M

Launch pad: Cosmodrome Site 1S

Location: Vostochny Cosmodrome, Siberia, Russian Federation

...

Latest news about this satellite

There are no fresh news available about this satellite. Check back as we update our databases every day.


Newsletter sign-up

Weekly statistics, charts and insights to help you stay on top of the space industry.